| time (UTC) | temp F | wind direction | speed MPH | gust MPH | rain 1hr in | rain 24hr in | rain mn in | humidity % | barometer mb |
| 20260507101549 | 50 | 259 | 0.0 | 0.0 | 0.00 | 0.52 | 0.01 | 94 | 1014.3 |
| 20260507100104 | 50 | 259 | 0.0 | 0.0 | 0.00 | 0.52 | 0.01 | 94 | 1014.5 |
| 20260507094511 | 50 | 259 | 0.0 | 2.0 | 0.00 | 0.63 | 0.01 | 94 | 1014.4 |
| 20260507093026 | 51 | 259 | 0.0 | 1.0 | 0.00 | 0.63 | 0.01 | 95 | 1014.2 |
| 20260507091546 | 51 | 259 | 0.0 | 0.0 | 0.00 | 0.63 | 0.01 | 95 | 1014.1 |
| 20260507090100 | 51 | 259 | 0.0 | 0.0 | 0.00 | 0.63 | 0.01 | 95 | 1014.0 |
| 20260507084504 | 51 | 259 | 0.0 | 0.0 | 0.00 | 1.25 | 0.01 | 95 | 1013.9 |
| 20260507083019 | 51 | 259 | 0.0 | 0.0 | 0.00 | 1.25 | 0.01 | 95 | 1013.6 |
| 20260507081530 | 52 | 259 | 0.0 | 0.0 | 0.00 | 1.25 | 0.01 | 95 | 1013.8 |
| 20260507080050 | 52 | 259 | 0.0 | 0.0 | 0.00 | 1.25 | 0.01 | 95 | 1014.0 |
| 20260507074558 | 52 | 259 | 0.0 | 0.0 | 0.00 | 1.36 | 0.01 | 95 | 1014.0 |
| 20260507073007 | 52 | 259 | 0.0 | 0.0 | 0.00 | 1.36 | 0.01 | 95 | 1014.1 |
| 20260507071519 | 52 | 259 | 0.0 | 0.0 | 0.00 | 1.36 | 0.01 | 95 | 1014.1 |
| 20260507070034 | 52 | 259 | 0.0 | 0.0 | 0.00 | 1.36 | 0.01 | 95 | 1014.0 |
| 20260507064546 | 52 | 259 | 0.0 | 0.0 | 0.00 | 1.56 | 0.01 | 95 | 1014.1 |
| 20260507063106 | 52 | 259 | 0.0 | 0.0 | 0.01 | 1.56 | 0.01 | 95 | 1014.0 |
| 20260507061508 | 52 | 259 | 0.0 | 0.0 | 0.01 | 1.56 | 0.01 | 95 | 1014.2 |
| 20260507060024 | 52 | 259 | 0.0 | 0.0 | 0.01 | 1.56 | 0.01 | 95 | 1014.2 |
| 20260507054542 | 52 | 259 | 0.0 | 0.0 | 0.01 | 1.56 | 0.01 | 95 | 1013.9 |
| 20260507053055 | 52 | 259 | 0.0 | 0.0 | 0.00 | 1.55 | 0.00 | 95 | 1013.8 |
| 20260507051506 | 52 | 259 | 0.0 | 0.0 | 0.00 | 1.55 | 0.00 | 95 | 1013.9 |
| 20260507050024 | 52 | 259 | 0.0 | 0.0 | 0.00 | 1.55 | 0.00 | 95 | 1013.5 |
| 20260507044531 | 52 | 259 | 0.0 | 0.0 | 0.00 | 1.55 | 1.55 | 95 | 1013.6 |
| 20260507043044 | 52 | 259 | 0.0 | 2.0 | 0.00 | 1.55 | 1.55 | 95 | 1013.9 |
| 20260507041600 | 52 | 259 | 0.0 | 0.0 | 0.00 | 1.55 | 1.55 | 95 | 1013.6 |
| 20260507040010 | 52 | 259 | 0.0 | 0.0 | 0.00 | 1.55 | 1.55 | 95 | 1013.8 |
| 20260507034522 | 52 | 259 | 0.0 | 0.0 | 0.00 | 1.55 | 1.55 | 95 | 1014.3 |
| 20260507033035 | 52 | 259 | 0.0 | 0.0 | 0.00 | 1.55 | 1.55 | 95 | 1014.4 |
| 20260507031549 | 52 | 259 | 0.0 | 0.0 | 0.00 | 1.55 | 1.55 | 95 | 1013.8 |
| 20260507030101 | 52 | 259 | 0.0 | 0.0 | 0.00 | 1.55 | 1.55 | 95 | 1013.6 |
| 20260507024512 | 52 | 259 | 0.0 | 0.0 | 0.00 | 1.55 | 1.55 | 95 | 1013.6 |
| 20260507023023 | 52 | 259 | 0.0 | 0.0 | 0.00 | 1.55 | 1.55 | 95 | 1013.4 |
| 20260507021541 | 52 | 259 | 0.0 | 0.0 | 0.00 | 1.55 | 1.55 | 95 | 1013.2 |
| 20260507020107 | 52 | 259 | 0.0 | 0.0 | 0.00 | 1.55 | 1.55 | 95 | 1013.4 |
| 20260507014606 | 53 | 259 | 0.0 | 2.0 | 0.00 | 1.55 | 1.55 | 95 | 1013.0 |
| 20260507013033 | 53 | 259 | 0.0 | 2.0 | 0.00 | 1.55 | 1.55 | 94 | 1012.6 |
| 20260507011527 | 53 | 259 | 0.0 | 0.0 | 0.00 | 1.55 | 1.55 | 94 | 1012.3 |
| 20260507010040 | 53 | 259 | 0.0 | 2.0 | 0.00 | 1.55 | 1.55 | 94 | 1012.3 |
| 20260507004603 | 53 | 259 | 0.0 | 2.0 | 0.00 | 1.55 | 1.55 | 94 | 1013.0 |
| 20260507003103 | 53 | 259 | 0.0 | 2.0 | 0.00 | 1.55 | 1.55 | 94 | 1013.1 |
| 20260507001514 | 53 | 259 | 0.0 | 2.0 | 0.00 | 1.55 | 1.55 | 94 | 1012.7 |
| 20260507000033 | 53 | 259 | 0.0 | 1.0 | 0.00 | 1.55 | 1.55 | 94 | 1013.0 |
| 20260506234547 | 53 | 259 | 0.0 | 1.0 | 0.00 | 1.55 | 1.55 | 94 | 1013.1 |
| 20260506233109 | 53 | 259 | 0.0 | 1.0 | 0.00 | 1.55 | 1.55 | 93 | 1013.3 |
| 20260506231505 | 53 | 257 | 0.0 | 2.0 | 0.00 | 1.55 | 1.55 | 93 | 1012.6 |
| 20260506230020 | 53 | 257 | 0.0 | 2.0 | 0.00 | 1.55 | 1.55 | 93 | 1012.5 |
| 20260506224534 | 54 | 257 | 0.0 | 1.0 | 0.00 | 1.55 | 1.55 | 94 | 1012.3 |
| 20260506223048 | 54 | 256 | 0.0 | 2.0 | 0.00 | 1.55 | 1.55 | 94 | 1011.9 |
| 20260506221611 | 54 | 256 | 0.0 | 2.0 | 0.01 | 1.55 | 1.55 | 94 | 1011.3 |
| 20260506220009 | 54 | 281 | 0.0 | 2.0 | 0.01 | 1.55 | 1.55 | 94 | 1011.4 |
| 20260506214535 | 54 | 254 | 0.0 | 2.0 | 0.02 | 1.55 | 1.55 | 94 | 1011.3 |
| 20260506213040 | 54 | 281 | 0.0 | 1.0 | 0.02 | 1.55 | 1.55 | 94 | 1011.5 |
| 20260506211548 | 54 | 280 | 0.0 | 2.0 | 0.03 | 1.54 | 1.54 | 94 | 1012.6 |
| 20260506204511 | 54 | 280 | 0.0 | 2.0 | 0.03 | 1.53 | 1.53 | 94 | 1012.6 |
| 20260506203024 | 54 | 280 | 0.0 | 0.0 | 0.03 | 1.53 | 1.53 | 94 | 1012.2 |
| 20260506201541 | 54 | 280 | 0.0 | 0.0 | 0.01 | 1.51 | 1.51 | 93 | 1012.6 |
| 20260506200052 | 54 | 280 | 0.0 | 2.0 | 0.00 | 1.50 | 1.50 | 92 | 1013.4 |
| 20260506194502 | 54 | 279 | 0.0 | 2.0 | 0.00 | 1.50 | 1.50 | 93 | 1013.4 |
| 20260506193015 | 54 | 279 | 0.0 | 2.0 | 0.00 | 1.50 | 1.50 | 94 | 1013.4 |
| 20260506191528 | 54 | 279 | 0.0 | 2.0 | 0.00 | 1.50 | 1.50 | 95 | 1013.3 |
| 20260506190040 | 53 | 275 | 0.0 | 2.0 | 0.00 | 1.50 | 1.50 | 94 | 1013.6 |
| 20260506184555 | 53 | 295 | 0.0 | 2.0 | 0.00 | 1.52 | 1.50 | 95 | 1013.0 |
| 20260506183012 | 53 | 295 | 0.0 | 2.0 | 0.00 | 1.52 | 1.50 | 95 | 1013.0 |
| 20260506181519 | 53 | 298 | 0.0 | 2.0 | 0.00 | 1.52 | 1.50 | 95 | 1012.8 |
| 20260506180034 | 53 | 285 | 0.0 | 2.0 | 0.01 | 1.52 | 1.50 | 95 | 1012.7 |
| 20260506174544 | 52 | 310 | 0.0 | 2.0 | 0.02 | 1.52 | 1.50 | 95 | 1012.6 |
| 20260506173101 | 52 | 298 | 0.0 | 2.0 | 0.03 | 1.52 | 1.50 | 95 | 1013.0 |
| 20260506171507 | 52 | 298 | 0.0 | 2.0 | 0.05 | 1.51 | 1.49 | 95 | 1013.2 |
| 20260506170018 | 51 | 305 | 0.0 | 2.0 | 0.05 | 1.51 | 1.49 | 95 | 1013.0 |
| 20260506164537 | 51 | 325 | 0.0 | 2.0 | 0.06 | 1.60 | 1.48 | 95 | 1013.1 |
| 20260506163047 | 51 | 287 | 0.0 | 2.0 | 0.07 | 1.59 | 1.47 | 95 | 1012.7 |
| 20260506161559 | 51 | 287 | 0.0 | 2.0 | 0.06 | 1.56 | 1.44 | 95 | 1012.5 |
| 20260506160010 | 52 | 286 | 0.0 | 2.0 | 0.06 | 1.55 | 1.43 | 95 | 1012.3 |
| 20260506154522 | 52 | 277 | 0.0 | 2.0 | 0.06 | 1.88 | 1.42 | 95 | 1012.4 |
| 20260506153050 | 52 | 276 | 0.0 | 2.0 | 0.07 | 1.86 | 1.40 | 95 | 1012.4 |
| 20260506151548 | 52 | 277 | 0.0 | 2.0 | 0.09 | 1.84 | 1.38 | 95 | 1012.3 |
| 20260506150104 | 52 | 276 | 0.0 | 2.0 | 0.11 | 1.83 | 1.37 | 95 | 1012.6 |
| 20260506144515 | 51 | 276 | 0.0 | 2.0 | 0.12 | 2.06 | 1.35 | 95 | 1012.3 |
| 20260506143028 | 52 | 290 | 0.0 | 2.0 | 0.09 | 2.02 | 1.32 | 95 | 1011.9 |
| 20260506141538 | 52 | 286 | 0.0 | 1.0 | 0.06 | 2.00 | 1.29 | 95 | 1011.5 |
| 20260506140052 | 52 | 286 | 0.0 | 2.0 | 0.03 | 1.97 | 1.26 | 95 | 1011.8 |
| 20260506134502 | 52 | 275 | 0.0 | 2.0 | 0.00 | 2.06 | 1.23 | 95 | 1011.1 |
| 20260506133015 | 52 | 275 | 0.0 | 1.0 | 0.00 | 2.06 | 1.23 | 95 | 1011.2 |
| 20260506131535 | 52 | 269 | 0.0 | 2.0 | 0.00 | 2.06 | 1.23 | 95 | 1011.2 |
| 20260506130042 | 52 | 252 | 0.0 | 1.0 | 0.00 | 2.06 | 1.23 | 95 | 1010.9 |
| 20260506124554 | 52 | 251 | 0.0 | 0.0 | 0.00 | 2.06 | 1.23 | 95 | 1009.9 |
| 20260506123003 | 51 | 251 | 0.0 | 0.0 | 0.00 | 2.06 | 1.23 | 95 | 1010.0 |
| 20260506121516 | 51 | 251 | 0.0 | 2.0 | 0.00 | 2.06 | 1.23 | 95 | 1009.9 |